IW1QQG-13 Weather Reports


time (UTC)temp
F
wind
direction
speed
knots
gust
knots
rain 1hr
in
rain 24hr
in
rain mn
in
humidity
%
barometer
mb
20260505194554 55 230 0.9 1.7 0.00 0.00 0.00 92 1012.9
20260505193554 55 228 0.9 0.9 0.00 0.00 0.00 94 1012.9
20260505192554 55 203 0.0 0.9 0.00 0.00 0.00 94 1012.9
20260505191554 55 210 0.0 0.0 0.00 0.00 0.00 94 1012.9
20260505190554 56 252 0.0 0.9 0.00 0.00 0.00 92 1012.9
20260505185554 56 222 1.7 1.7 0.00 0.00 0.00 93 1012.9
20260505184554 55 207 0.9 1.7 0.00 0.00 0.00 96 1012.9
20260505183554 56 203 0.0 0.9 0.00 0.00 0.00 94 1012.9
20260505182554 56 209 0.9 1.7 0.00 0.00 0.00 94 1012.9
20260505181554 57 215 0.9 0.9 0.00 0.00 0.00 96 1012.9
20260505175554 57 218 0.0 0.0 0.00 0.00 0.00 94 1012.9
20260505174554 58 201 0.0 0.0 0.00 0.00 0.00 92 1012.5
20260505173553 58 203 0.0 0.9 0.00 0.00 0.00 91 1012.9
20260505172554 59 202 0.0 0.0 0.00 0.00 0.00 88 1012.9
20260505171554 59 196 0.0 0.0 0.00 0.00 0.00 87 1012.9
20260505170554 59 178 0.0 2.6 0.00 0.00 0.00 86 1013.2
20260505164554 60 181 0.0 0.0 0.00 0.00 0.00 83 1013.2
20260505163557 60 190 0.0 0.9 0.00 0.00 0.00 83 1013.2
20260505162553 60 196 1.7 2.6 0.00 0.00 0.00 83 1013.2
20260505161554 61 173 0.9 1.7 0.00 0.00 0.00 82 1013.2
20260505160554 61 165 0.9 0.9 0.00 0.00 0.00 81 1013.2
20260505152554 62 167 1.7 1.7 0.00 0.00 0.00 80 1013.2
20260505151554 62 180 0.9 1.7 0.00 0.00 0.00 81 1013.2
20260505150553 61 123 0.9 1.7 0.00 0.00 0.00 82 1013.2
20260505140553 62 182 0.0 0.0 0.00 0.00 0.00 80 1013.5
20260505124553 60 185 0.9 0.9 0.00 0.00 0.55 89 1012.9
20260505122553 60 189 0.9 1.7 0.00 0.00 0.55 88 1012.9
20260505121553 60 203 0.0 0.0 0.00 0.00 0.55 85 1012.9
20260505120553 60 217 1.7 2.6 0.00 0.00 0.55 84 1012.9
20260505115553 60 174 0.9 0.9 0.00 0.00 0.55 81 1012.9
20260505113553 60 8 1.7 1.7 0.00 0.00 0.55 83 1012.9
20260505112553 61 201 0.0 0.9 0.00 0.00 0.55 87 1012.9
20260505111553 61 195 0.0 0.0 0.00 0.00 0.55 90 1012.9
20260505110553 60 199 0.0 0.0 0.00 0.00 0.55 93 1012.9
20260505101553 60 198 0.0 0.0 0.00 0.00 0.55 91 1012.9
20260505100553 59 26 1.7 1.7 0.00 0.00 0.55 92 1012.9
20260505095553 59 226 0.0 0.9 0.00 0.00 0.55 96 1012.9
20260505094553 59 191 0.9 1.7 0.00 0.00 0.55 96 1012.9
20260505092553 59 189 0.0 0.0 0.00 0.00 0.55 95 1012.5
20260505091553 59 197 0.0 0.0 0.00 0.00 0.55 96 1012.5
20260505085553 59 234 0.9 0.9 0.00 0.00 0.54 96 1012.9
20260505084553 59 192 0.0 0.0 0.00 0.00 0.54 95 1012.9
20260505083553 59 199 0.0 0.9 0.00 0.00 0.54 96 1012.5
20260505082553 59 193 0.9 0.9 0.00 0.00 0.54 96 1012.5
20260505081553 59 193 0.0 0.0 0.00 0.00 0.54 96 1012.5
20260505080553 59 184 0.0 0.0 0.00 0.00 0.54 95 1012.2
20260505075553 59 198 0.0 0.0 0.00 0.00 0.54 95 1012.5
20260505074553 59 181 0.0 0.0 0.00 0.00 0.54 94 1012.5
20260505073553 59 181 0.9 0.9 0.00 0.00 0.54 95 1012.2
20260505072553 59 197 0.0 0.0 0.00 0.00 0.54 96 1012.2
20260505071553 59 167 0.9 0.9 0.00 0.00 0.54 96 1012.2
20260505070553 58 187 0.0 0.9 0.00 0.00 0.54 96 1012.2
20260505065553 58 212 0.9 0.9 0.00 0.00 0.54 97 1012.2
20260505064553 58 215 0.0 0.0 0.00 0.00 0.54 95 1011.9
20260505063553 58 187 0.0 0.9 0.00 0.00 0.54 95 1011.5
20260505062553 58 201 0.0 0.0 0.00 0.00 0.54 94 1011.5
20260505061553 59 195 0.0 0.9 0.00 0.00 0.54 93 1011.5
20260505060553 59 157 0.0 0.9 0.00 0.00 0.54 97 1011.2
20260505055553 57 184 0.0 0.0 0.00 0.00 0.54 99 1011.2
20260505053553 57 195 0.0 0.0 0.00 0.00 0.54 98 1011.2
20260505052553 57 203 0.0 0.0 0.00 0.00 0.54 99 1011.2
20260505051553 57 210 0.0 0.0 0.00 0.00 0.54 99 1011.2
20260505050553 56 205 0.0 0.0 0.00 0.00 0.54 99 1010.8
20260505041553 56 220 0.9 0.9 0.00 0.00 0.54 99 1010.8
20260505040553 56 250 0.9 0.9 0.00 0.00 0.54 99 1011.2
20260505035553 56 213 0.0 0.0 0.00 0.00 0.54 99 1011.2
20260505033553 56 199 0.0 0.9 0.00 0.00 0.53 99 1011.2
20260505032553 56 195 0.0 0.0 0.00 0.00 0.53 99 1010.8
20260505031553 56 202 0.0 0.9 0.00 0.00 0.52 99 1010.8
20260505030553 57 176 1.7 1.7 0.00 0.00 0.51 98 1011.2
20260505025553 58 209 0.0 0.9 0.00 0.00 0.51 91 1011.2
20260505024553 56 93 1.7 2.6 0.00 0.00 0.47 98 1010.5
20260505023553 57 354 1.7 1.7 0.00 0.00 0.43 98 1011.9
20260505022553 56 210 0.0 0.9 0.00 0.00 0.38 98 1011.9
20260505021553 56 217 0.9 1.7 0.00 0.00 0.35 98 1012.2
20260505020553 57 207 0.9 0.9 0.00 0.00 0.29 96 1012.5
20260505015553 57 211 0.9 0.9 0.00 0.00 0.23 93 1012.5
20260505014553 58 207 2.6 2.6 0.00 0.00 0.20 90 1012.2
20260505013553 58 315 1.7 1.7 0.00 0.00 0.20 87 1011.9
20260505012553 59 347 7.8 9.6 0.00 0.00 0.19 83 1011.9
20260505011553 58 330 2.6 4.3 0.00 0.00 0.19 86 1012.2
20260505010553 58 8 3.5 6.1 0.00 0.00 0.17 85 1012.5
20260505005553 57 265 2.6 2.6 0.00 0.00 0.16 88 1012.9
20260505004553 57 308 2.6 3.5 0.00 0.00 0.13 88 1012.9
20260505003553 57 340 2.6 2.6 0.00 0.00 0.09 87 1013.5
20260505002553 57 216 0.0 0.9 0.00 0.00 0.05 90 1013.5
20260505001552 58 0 1.7 1.7 0.00 0.00 0.04 84 1013.5
20260505000553 58 290 2.6 2.6 0.00 0.00 0.03 84 1013.5
20260504235552 58 204 0.0 0.9 0.00 0.00 0.01 87 1013.9
20260504234553 58 186 0.0 0.9 0.00 0.00 0.00 83 1013.9
20260504233552 60 270 0.9 0.9 0.00 0.00 0.00 77 1013.5
20260504232552 60 48 1.7 5.2 0.00 0.00 0.00 76 1013.9
20260504231552 59 196 0.9 1.7 0.00 0.00 0.00 79 1013.9
20260504230553 59 15 3.5 7.8 0.00 0.00 0.00 77 1014.2
20260504225552 59 220 2.6 3.5 0.00 0.00 0.11 79 1014.2
20260504224552 59 294 2.6 4.3 0.00 0.00 0.11 78 1014.6
20260504223552 58 147 2.6 4.3 0.00 0.00 0.09 81 1014.2
20260504222553 57 225 1.7 2.6 0.00 0.00 0.09 87 1014.6
20260504221552 58 250 0.9 1.7 0.00 0.00 0.07 83 1014.9
20260504220552 59 234 1.7 2.6 0.00 0.00 0.05 76 1014.9
20260504215552 60 73 2.6 2.6 0.00 0.00 0.04 73 1014.9
20260504214552 59 3 5.2 8.7 0.00 0.00 0.04 76 1014.9
20260504213552 58 230 3.5 7.8 0.00 0.00 0.04 80 1015.2
20260504212552 59 27 5.2 6.1 0.00 0.00 0.03 77 1015.2
20260504211550 60 171 3.5 7.0 0.00 0.00 0.01 73 1015.9
20260504210550 61 7 1.7 2.6 0.00 0.00 0.00 66 1015.9
20260504205550 61 264 2.6 3.5 0.00 0.00 0.00 68 1015.9
20260504204550 61 226 0.9 0.9 0.00 0.00 0.00 68 1015.9
20260504203550 61 152 2.6 2.6 0.00 0.00 0.00 69 1015.9
20260504202550 61 249 4.3 4.3 0.00 0.00 0.00 68 1015.9
20260504201550 60 288 2.6 2.6 0.00 0.00 0.00 70 1015.9
20260504200550 61 243 2.6 8.7 0.00 0.00 0.00 69 1015.6
20260504195550 60 141 3.5 3.5 0.00 0.00 0.00 73 1015.6